Regional Weather Roundup
Issued by NWS

Home | Current Version | Previous Version | Text Only | Print | Product List | Glossary Off
Versions: 1 2 3 4 5 6 7 8 9 10 11 12 13 14 15 16 17 18 19 20 21 22 23 24 25 26 27 28 29 30 31 32 33 34 35 36 37 38 39 40 41 42 43 44 45 46 47 48 49 50

000
ASUS43 KLOT 202300
RWRIL

ILLINOIS REGIONAL WEATHER ROUNDUP
NATIONAL WEATHER SERVICE CHICAGO/ROMEOVILLE IL
500 PM CST THU NOV 20 2014

NOTE: "FAIR" INDICATES FEW OR NO CLOUDS BELOW 12,000 FEET WITH NO
SIGNIFICANT WEATHER AND/OR OBSTRUCTIONS TO VISIBILITY.

* THESE STATIONS ARE NOT UNDER NWS QUALITY CONTROL. THEY ALSO MAY NOT
  REPORT WEATHER SUCH AS PRECIPITATION OR FOG.

ILZ001-002-007-009-015-016-024-210000-
NORTHWEST ILLINOIS

CITY           SKY/WX    TMP DP  RH WIND       PRES   REMARKS
MOLINE         CLEAR     24   8  50 NW9       30.21R WCI  14
STERLING*      CLEAR     21   7  53 NW14G20   30.19R WCI   8
$$

ILZ003-004-008-010-011-017-018-210000-
NORTH CENTRAL ILLINOIS

CITY           SKY/WX    TMP DP  RH WIND       PRES   REMARKS
ROCKFORD       CLEAR     21   3  45 NW14      30.17R WCI   8
FREEPORT*      CLEAR     20   6  55 NW12      30.17R WCI   8
$$

ILZ005-006-012>014-019>023-210000-
NORTHEAST ILLINOIS

CITY           SKY/WX    TMP DP  RH WIND       PRES   REMARKS
CHICAGO-OHARE  PTCLDY    23   2  40 W14       30.12R WCI  11
CHICAGO-MIDWAY PTCLDY    26   2  35 W15       30.14R WCI  14
AURORA         CLEAR     23   3  42 W16       30.15R WCI  10
LANSING*       CLEAR     25   3  38 W12       30.14R WCI  14
WAUKEGAN       CLEAR     21   1  41 W8G21     30.11R WCI  11
DUPAGE AIRPORT CLEAR     23   2  40 W12       30.13R WCI  12
WHEELING       CLEAR     23   2  40 W12       30.14R WCI  12
NORTHERLY ISL    N/A     26   1  34 W13         N/A  WCI  15
$$

LMZ740>746-210000-
SOUTHERN LAKE MICHIGAN

STATION/POSITION SKY/WX   TEMP    WIND        PRES    VSBY  WAVE
                          AIR SEA DIR/SP/G                  HT/PER
                          (F)     (DEG/KT/KT) (MB)    (MI)  (FT/S)
SOUTHERN BUOY              26 43  280/ 19/ 27 1018.5R         5/ 5
WAUKEGAN HARBOR            24     280/ 15/ 21   N/A
HARRISON CRIB              26     290/ 23/ 27   N/A
BURNHAM HARBOR             26     270/  8/ 17   N/A
CALUMET HARBOR             26     260/ 11/ 20 1018.7R
MICHIGAN CITY              28     250/ 23/ 28   N/A
$$

ILZ025>027-034>036-040-047-049-050-058-095>099-210000-
WEST-CENTRAL ILLINOIS

CITY           SKY/WX    TMP DP  RH WIND       PRES   REMARKS
QUINCY         CLEAR     27  10  49 NW7       30.22R WCI  19
MACOMB*        CLEAR     25  11  55 W8        30.24R WCI  16
$$

ILZ028>032-037-038-041>044-048-051>054-059>061-210000-
CENTRAL ILLINOIS

CITY           SKY/WX    TMP DP  RH WIND       PRES   REMARKS
DECATUR        CLEAR     30  14  51 W7        30.21R WCI  23
PEORIA         CLEAR     29   9  43 NW7       30.21R WCI  22
LINCOLN*       CLEAR     31  11  44 CALM      30.22R
SPRINGFIELD    CLEAR     26  11  52 W6        30.22R WCI  19
TAYLORVILLE    NOT AVBL
$$

ILZ033-039-045-046-055>057-062-063-210000-
EAST-CENTRAL ILLINOIS

CITY           SKY/WX    TMP DP  RH WIND       PRES   REMARKS
CHAMPAIGN      CLEAR     27  13  55 W9        30.19R WCI  18
MATTOON        CLEAR     28  16  60 SW6       30.20R WCI  22
$$

ILZ079-100>102-210000-
SOUTHWEST ILLINOIS

CITY           SKY/WX    TMP DP  RH WIND       PRES   REMARKS
ALTON          PTCLDY    32  18  55 W7        30.23R WCI  26
BELLEVILLE     CLEAR     33  18  54 N2        30.22R
CAHOKIA*       CLEAR     33  19  56 N5        30.22S WCI  29
$$

ILZ064>066-069>071-074>076-080>082-084>086-088>090-092>094-210000-
SOUTH-CENTRAL ILLINOIS

CITY           SKY/WX    TMP DP  RH WIND       PRES   REMARKS
CARBONDALE     CLEAR     36  17  46 CALM      30.22F
MARION         CLEAR     36  19  51 NW6       30.23F WCI  31
MT. VERNON     PTCLDY    34  16  47 CALM      30.23S
$$

ILZ067-068-072-073-078-083-087-091-210000-
SOUTHEAST ILLINOIS

CITY           SKY/WX    TMP DP  RH WIND       PRES   REMARKS
LAWRENCEVILLE  CLEAR     29  17  61 W7        30.24R WCI  22
$$

ABBREVIATIONS USED IN REMARKS
   TC - TEMPERATURE IN CELSIUS
  WCI - WIND CHILL INDEX
   HX - HEAT INDEX
  VSB - VISIBILITY
$$




USA.gov is the U.S. government's official web portal to all federal, state and local government web resources and services.